Location: Sabalos
(43.2860°N, 0.1414°E)
Time: 10:46:18
(UTC+00:00)

Cosmos 1892 - Pass Details

Date: 05 July 2020
Orbit: 505 x 523 km, 82.5° (Epoch: 05 August)

Event Time Altitude Azimuth Distance (km) Brightness Sun altitude
Exits shadow 22:42:05 57° 238° (WSW) 601 2.8 -21.4°
Maximum altitude 22:42:33 64° 279° (W) 565 2.9 -21.4°
Drops below altitude 10° 22:46:20 10° 2° (N) 1,738 6.3 -21.7°
Sets 22:48:30 0° 6° (N) 2,632 7.4 -21.8°
